| time (UTC) | temp F | wind direction | speed MPH | gust MPH | rain 1hr in | rain 24hr in | rain mn in | humidity % | barometer mb |
| 20260906000057 | 69 | 0 | 0.0 | 5.0 | 0.00 | 0.00 | 0.00 | 84 | 1019.1 |
| 20260905234557 | 70 | 165 | 1.0 | 5.0 | 0.00 | 0.00 | 0.00 | 83 | 1018.8 |
| 20260905233053 | 70 | 145 | 1.0 | 4.0 | 0.00 | 0.00 | 0.00 | 83 | 1018.7 |
| 20260905231609 | 70 | 0 | 3.0 | 7.0 | 0.00 | 0.00 | 0.00 | 82 | 1019.1 |
| 20260905230105 | 70 | 0 | 1.0 | 6.0 | 0.00 | 0.00 | 0.00 | 81 | 1019.2 |
| 20260905224556 | 70 | 108 | 3.0 | 9.0 | 0.00 | 0.00 | 0.00 | 81 | 1019.3 |
| 20260905223055 | 70 | 111 | 3.0 | 7.0 | 0.00 | 0.00 | 0.00 | 82 | 1019.4 |
| 20260905221604 | 70 | 157 | 2.0 | 8.0 | 0.00 | 0.00 | 0.00 | 83 | 1019.7 |
| 20260905220105 | 71 | 98 | 1.0 | 6.0 | 0.00 | 0.00 | 0.00 | 83 | 1019.5 |
| 20260905214602 | 70 | 163 | 2.0 | 8.0 | 0.00 | 0.00 | 0.00 | 83 | 1019.9 |
| 20260905213053 | 71 | 128 | 2.0 | 7.0 | 0.00 | 0.00 | 0.00 | 83 | 1019.9 |
| 20260905211602 | 71 | 90 | 1.0 | 6.0 | 0.00 | 0.00 | 0.00 | 83 | 1020.2 |
| 20260905210115 | 70 | 0 | 0.0 | 4.0 | 0.00 | 0.00 | 0.00 | 83 | 1020.6 |
| 20260905204606 | 70 | 111 | 1.0 | 6.0 | 0.00 | 0.00 | 0.00 | 83 | 1020.6 |
| 20260905203058 | 70 | 159 | 1.0 | 7.0 | 0.00 | 0.00 | 0.00 | 84 | 1020.6 |
| 20260905201555 | 70 | 120 | 1.0 | 6.0 | 0.00 | 0.00 | 0.00 | 85 | 1020.6 |
| 20260905200054 | 69 | 0 | 2.0 | 7.0 | 0.00 | 0.00 | 0.00 | 85 | 1020.6 |
| 20260905194611 | 70 | 141 | 1.0 | 6.0 | 0.00 | 0.00 | 0.00 | 85 | 1020.7 |
| 20260905193054 | 69 | 100 | 2.0 | 6.0 | 0.00 | 0.00 | 0.00 | 85 | 1020.9 |
| 20260905191558 | 69 | 86 | 2.0 | 6.0 | 0.00 | 0.00 | 0.00 | 85 | 1020.8 |
| 20260905190109 | 69 | 144 | 0.0 | 5.0 | 0.00 | 0.00 | 0.00 | 87 | 1021.0 |
| 20260905184621 | 68 | 88 | 2.0 | 9.0 | 0.00 | 0.01 | 0.00 | 87 | 1020.9 |
| 20260905183108 | 68 | 110 | 2.0 | 4.0 | 0.00 | 0.01 | 0.00 | 88 | 1020.9 |
| 20260905181607 | 68 | 109 | 1.0 | 3.0 | 0.00 | 0.01 | 0.00 | 88 | 1021.1 |
| 20260905180104 | 68 | 178 | 2.0 | 6.0 | 0.00 | 0.01 | 0.00 | 87 | 1021.2 |
| 20260905174610 | 68 | 177 | 1.0 | 5.0 | 0.00 | 0.01 | 0.00 | 88 | 1020.9 |
| 20260905173116 | 67 | 131 | 0.0 | 6.0 | 0.00 | 0.01 | 0.00 | 89 | 1021.0 |
| 20260905171624 | 67 | 0 | 0.0 | 4.0 | 0.00 | 0.01 | 0.00 | 91 | 1020.8 |
| 20260905164606 | 66 | 119 | 2.0 | 4.0 | 0.00 | 0.01 | 0.00 | 89 | 1021.1 |
| 20260905163115 | 66 | 121 | 1.0 | 4.0 | 0.00 | 0.01 | 0.00 | 89 | 1021.0 |
| 20260905161604 | 66 | 0 | 0.0 | 5.0 | 0.00 | 0.01 | 0.00 | 90 | 1021.1 |
| 20260905154618 | 64 | 0 | 1.0 | 6.0 | 0.00 | 0.01 | 0.00 | 92 | 1021.0 |
| 20260905153121 | 63 | 0 | 1.0 | 7.0 | 0.00 | 0.01 | 0.00 | 93 | 1020.8 |
| 20260905151605 | 63 | 61 | 0.0 | 3.0 | 0.00 | 0.01 | 0.00 | 93 | 1020.8 |
| 20260905150054 | 62 | 0 | 0.0 | 3.0 | 0.00 | 0.01 | 0.00 | 93 | 1021.0 |
| 20260905144603 | 62 | 13 | 2.0 | 5.0 | 0.00 | 0.01 | 0.00 | 94 | 1020.6 |
| 20260905143054 | 61 | 0 | 0.0 | 3.0 | 0.00 | 0.01 | 0.00 | 95 | 1020.6 |
| 20260905141551 | 61 | 0 | 1.0 | 3.0 | 0.00 | 0.01 | 0.00 | 95 | 1020.5 |
| 20260905140105 | 60 | 0 | 0.0 | 2.0 | 0.00 | 0.01 | 0.00 | 95 | 1020.6 |
| 20260905134601 | 60 | 129 | 1.0 | 3.0 | 0.00 | 0.01 | 0.00 | 96 | 1020.8 |
| 20260905133056 | 60 | 0 | 1.0 | 2.0 | 0.00 | 0.01 | 0.00 | 96 | 1020.8 |
| 20260905131610 | 60 | 0 | 0.0 | 2.0 | 0.00 | 0.01 | 0.00 | 96 | 1020.8 |
| 20260905124601 | 59 | 0 | 0.0 | 0.0 | 0.00 | 0.01 | 0.00 | 96 | 1020.6 |
| 20260905123109 | 59 | 0 | 0.0 | 0.0 | 0.00 | 0.01 | 0.00 | 96 | 1019.9 |
| 20260905121600 | 59 | 0 | 0.0 | 0.0 | 0.00 | 0.01 | 0.00 | 96 | 1019.8 |
| 20260905120104 | 59 | 0 | 0.0 | 0.0 | 0.00 | 0.01 | 0.00 | 95 | 1019.5 |
| 20260905114602 | 60 | 0 | 0.0 | 0.0 | 0.00 | 0.01 | 0.00 | 95 | 1019.2 |
| 20260905113057 | 60 | 0 | 0.0 | 0.0 | 0.00 | 0.01 | 0.00 | 96 | 1018.9 |
| 20260905111642 | 60 | 0 | 0.0 | 0.0 | 0.00 | 0.01 | 0.00 | 96 | 1018.9 |
| 20260905110051 | 60 | 0 | 0.0 | 0.0 | 0.00 | 0.01 | 0.00 | 96 | 1018.8 |
| 20260905104605 | 61 | 0 | 0.0 | 2.0 | 0.00 | 0.01 | 0.00 | 95 | 1018.9 |
| 20260905103104 | 61 | 0 | 0.0 | 3.0 | 0.00 | 0.01 | 0.00 | 96 | 1019.1 |
| 20260905101606 | 61 | 0 | 0.0 | 2.0 | 0.00 | 0.01 | 0.00 | 96 | 1019.1 |
| 20260905100100 | 61 | 0 | 0.0 | 3.0 | 0.00 | 0.01 | 0.00 | 97 | 1019.0 |
| 20260905094607 | 61 | 0 | 0.0 | 3.0 | 0.00 | 0.01 | 0.00 | 97 | 1018.9 |
| 20260905093055 | 61 | 0 | 0.0 | 3.0 | 0.00 | 0.01 | 0.00 | 97 | 1019.2 |
| 20260905091559 | 61 | 0 | 0.0 | 0.0 | 0.00 | 0.01 | 0.00 | 97 | 1019.2 |
| 20260905090055 | 61 | 0 | 0.0 | 1.0 | 0.00 | 0.01 | 0.00 | 96 | 1019.0 |
| 20260905084559 | 61 | 42 | 0.0 | 3.0 | 0.00 | 0.01 | 0.00 | 96 | 1019.1 |
| 20260905083103 | 62 | 115 | 0.0 | 2.0 | 0.00 | 0.01 | 0.00 | 96 | 1019.2 |
| 20260905081601 | 62 | 0 | 0.0 | 1.0 | 0.00 | 0.01 | 0.00 | 96 | 1019.1 |
| 20260905080106 | 62 | 0 | 0.0 | 0.0 | 0.00 | 0.01 | 0.00 | 96 | 1019.3 |
| 20260905074605 | 62 | 0 | 0.0 | 0.0 | 0.00 | 0.01 | 0.00 | 96 | 1019.2 |
| 20260905073104 | 62 | 0 | 0.0 | 0.0 | 0.00 | 0.01 | 0.00 | 96 | 1019.1 |
| 20260905071600 | 62 | 104 | 0.0 | 3.0 | 0.00 | 0.01 | 0.00 | 96 | 1019.1 |
| 20260905070101 | 62 | 0 | 0.0 | 2.0 | 0.00 | 0.01 | 0.00 | 96 | 1019.0 |
| 20260905064606 | 62 | 112 | 0.0 | 1.0 | 0.00 | 0.51 | 0.00 | 96 | 1019.1 |
| 20260905063103 | 62 | 0 | 0.0 | 3.0 | 0.00 | 0.51 | 0.00 | 95 | 1019.1 |
| 20260905061604 | 62 | 0 | 0.0 | 3.0 | 0.00 | 0.51 | 0.00 | 95 | 1019.1 |
| 20260905060058 | 62 | 102 | 0.0 | 3.0 | 0.00 | 0.51 | 0.00 | 95 | 1019.2 |
| 20260905054555 | 62 | 0 | 0.0 | 2.0 | 0.00 | 0.54 | 0.00 | 95 | 1019.2 |
| 20260905053111 | 62 | 0 | 0.0 | 4.0 | 0.00 | 0.54 | 0.00 | 95 | 1019.2 |
| 20260905051601 | 62 | 90 | 2.0 | 7.0 | 0.00 | 0.54 | 0.00 | 95 | 1019.1 |
| 20260905044555 | 62 | 80 | 0.0 | 4.0 | 0.00 | 0.54 | 0.54 | 95 | 1018.9 |
| 20260905043057 | 62 | 77 | 0.0 | 2.0 | 0.00 | 0.54 | 0.54 | 95 | 1018.7 |
| 20260905041606 | 62 | 0 | 0.0 | 2.0 | 0.00 | 0.54 | 0.54 | 95 | 1018.8 |
| 20260905040105 | 63 | 0 | 0.0 | 2.0 | 0.00 | 0.54 | 0.54 | 94 | 1018.9 |
| 20260905034619 | 63 | 0 | 0.0 | 0.0 | 0.00 | 0.54 | 0.54 | 94 | 1018.9 |
| 20260905033119 | 63 | 0 | 0.0 | 0.0 | 0.00 | 0.54 | 0.54 | 94 | 1019.1 |
| 20260905031614 | 63 | 0 | 0.0 | 0.0 | 0.00 | 0.54 | 0.54 | 94 | 1019.2 |
| 20260905030114 | 63 | 0 | 0.0 | 0.0 | 0.00 | 0.54 | 0.54 | 94 | 1019.1 |
| 20260905024605 | 63 | 0 | 0.0 | 0.0 | 0.00 | 0.55 | 0.54 | 94 | 1019.1 |
| 20260905023127 | 64 | 0 | 0.0 | 0.0 | 0.00 | 0.55 | 0.54 | 94 | 1019.2 |
| 20260905021605 | 64 | 0 | 0.0 | 0.0 | 0.00 | 0.55 | 0.54 | 94 | 1019.1 |
| 20260905014606 | 64 | 0 | 1.0 | 5.0 | 0.00 | 1.19 | 0.54 | 94 | 1018.7 |
| 20260905013103 | 64 | 0 | 0.0 | 6.0 | 0.00 | 1.19 | 0.54 | 94 | 1018.6 |
| 20260905011606 | 65 | 0 | 0.0 | 3.0 | 0.00 | 1.19 | 0.54 | 95 | 1018.3 |
| 20260905010112 | 65 | 0 | 0.0 | 3.0 | 0.00 | 1.19 | 0.54 | 94 | 1018.2 |
| 20260905004633 | 65 | 70 | 0.0 | 2.0 | 0.00 | 1.19 | 0.54 | 94 | 1017.9 |
| 20260905003124 | 66 | 0 | 0.0 | 2.0 | 0.00 | 1.19 | 0.54 | 93 | 1018.0 |
| 20260905001603 | 66 | 64 | 0.0 | 2.0 | 0.00 | 1.19 | 0.54 | 92 | 1018.0 |